Time,TemperatureF,DewpointF,PressureIn,WindDirection,WindDirectionDegrees,WindSpeedMPH,WindSpeedGustMPH,Humidity,HourlyPrecipIn,Conditions,Clouds,dailyrainin,SolarRadiationWatts/m^2,SoftwareType,DateUTC
2013-05-19 00:03:00,61.0,61.0,-100.00,South,173,6.0,10.0,100,0.00,,,0.49,0.000000,,2013-05-19 04:03:00,
2013-05-19 00:33:00,61.0,61.0,-100.00,SSE,164,6.0,12.0,100,0.00,,,0.49,0.000000,,2013-05-19 04:33:00,
2013-05-19 00:42:00,61.0,61.0,-100.00,SSE,164,6.0,12.0,100,0.00,,,0.49,0.000000,,2013-05-19 04:42:00,
2013-05-19 00:53:00,61.0,61.0,-100.00,SSE,164,6.0,12.0,100,0.00,,,0.49,0.000000,,2013-05-19 04:53:00,
2013-05-19 01:02:00,61.0,61.0,-100.00,SSE,164,6.0,12.0,100,0.00,,,0.49,0.000000,,2013-05-19 05:02:00,
2013-05-19 01:32:00,61.0,61.0,-100.00,SSE,161,5.0,10.0,100,0.00,,,0.36,0.000000,,2013-05-19 05:32:00,
2013-05-19 01:42:00,61.0,61.0,-100.00,SSE,161,5.0,10.0,100,0.00,,,0.36,0.000000,,2013-05-19 05:42:00,
2013-05-19 01:52:00,61.0,61.0,-100.00,SSE,161,5.0,10.0,100,0.00,,,0.36,0.000000,,2013-05-19 05:52:00,
2013-05-19 02:02:00,61.0,61.0,-100.00,SSE,161,5.0,10.0,100,0.00,,,0.36,0.000000,,2013-05-19 06:02:00,
2013-05-19 02:32:00,61.0,61.0,-100.00,SSE,160,5.0,10.0,100,0.00,,,0.30,0.000000,,2013-05-19 06:32:00,
2013-05-19 02:42:00,61.0,61.0,-100.00,SSE,160,5.0,10.0,100,0.00,,,0.30,0.000000,,2013-05-19 06:42:00,
2013-05-19 02:52:00,61.0,61.0,-100.00,SSE,160,5.0,10.0,100,0.00,,,0.30,0.000000,,2013-05-19 06:52:00,
2013-05-19 03:01:00,61.0,61.0,-100.00,SSE,160,5.0,10.0,100,0.00,,,0.30,0.000000,,2013-05-19 07:01:00,
2013-05-19 03:32:00,60.0,60.0,-100.00,SSE,155,6.0,10.0,100,0.00,,,0.26,0.000000,,2013-05-19 07:32:00,
2013-05-19 03:42:00,60.0,60.0,-100.00,SSE,155,6.0,10.0,100,0.00,,,0.26,0.000000,,2013-05-19 07:42:00,
2013-05-19 03:52:00,60.0,60.0,-100.00,SSE,155,6.0,10.0,100,0.00,,,0.26,0.000000,,2013-05-19 07:52:00,
2013-05-19 04:02:00,60.0,60.0,-100.00,SSE,155,6.0,10.0,100,0.00,,,0.26,0.000000,,2013-05-19 08:02:00,
2013-05-19 04:32:00,60.0,60.0,-100.00,SSE,161,3.0,9.0,100,0.02,,,0.16,0.000000,,2013-05-19 08:32:00,
2013-05-19 04:42:00,60.0,60.0,-100.00,SSE,161,3.0,9.0,100,0.02,,,0.16,0.000000,,2013-05-19 08:42:00,
2013-05-19 04:52:00,60.0,60.0,-100.00,SSE,161,3.0,9.0,100,0.02,,,0.16,0.000000,,2013-05-19 08:52:00,
2013-05-19 05:02:00,60.0,60.0,-100.00,SSE,161,3.0,9.0,100,0.02,,,0.16,0.000000,,2013-05-19 09:02:00,
2013-05-19 05:33:00,61.0,61.0,-100.00,SSE,163,6.0,14.0,100,0.00,,,0.10,0.000000,,2013-05-19 09:33:00,
2013-05-19 05:43:00,61.0,61.0,-100.00,SSE,163,6.0,14.0,100,0.00,,,0.10,0.000000,,2013-05-19 09:43:00,
2013-05-19 05:53:00,61.0,61.0,-100.00,SSE,163,6.0,14.0,100,0.00,,,0.10,0.000000,,2013-05-19 09:53:00,
2013-05-19 06:03:00,61.0,61.0,-100.00,SSE,163,6.0,14.0,100,0.00,,,0.10,0.000000,,2013-05-19 10:03:00,
2013-05-19 06:33:00,60.0,60.0,-100.00,SE,131,3.0,14.0,100,0.21,,,0.30,0.000000,,2013-05-19 10:33:00,
2013-05-19 06:42:00,60.0,60.0,-100.00,SE,131,3.0,14.0,100,0.21,,,0.30,0.000000,,2013-05-19 10:42:00,
2013-05-19 06:53:00,60.0,60.0,-100.00,SE,131,3.0,14.0,100,0.21,,,0.30,0.000000,,2013-05-19 10:53:00,
2013-05-19 07:02:00,60.0,60.0,-100.00,SE,131,3.0,14.0,100,0.21,,,0.30,0.000000,,2013-05-19 11:02:00,
2013-05-19 07:32:00,60.0,60.0,-100.00,South,173,5.0,13.0,100,0.04,,,0.34,3.000000,,2013-05-19 11:32:00,
2013-05-19 07:42:00,60.0,60.0,-100.00,South,173,5.0,13.0,100,0.04,,,0.34,3.000000,,2013-05-19 11:42:00,
2013-05-19 07:53:00,60.0,60.0,-100.00,South,173,5.0,13.0,100,0.04,,,0.34,3.000000,,2013-05-19 11:53:00,
2013-05-19 08:01:00,60.0,60.0,-100.00,South,173,5.0,13.0,100,0.04,,,0.34,3.000000,,2013-05-19 12:01:00,
2013-05-19 08:32:00,60.0,60.0,-100.00,SSE,158,5.0,9.0,100,0.39,,,0.73,12.000000,,2013-05-19 12:32:00,
2013-05-19 08:42:00,60.0,60.0,-100.00,SSE,158,5.0,9.0,100,0.39,,,0.73,12.000000,,2013-05-19 12:42:00,
2013-05-19 08:52:00,60.0,60.0,-100.00,SSE,158,5.0,9.0,100,0.39,,,0.73,12.000000,,2013-05-19 12:52:00,
2013-05-19 09:01:00,60.0,60.0,-100.00,SSE,158,5.0,9.0,100,0.39,,,0.73,12.000000,,2013-05-19 13:01:00,
2013-05-19 10:32:00,64.0,64.0,-100.00,South,182,3.0,9.0,100,-99.99,,,0.66,426.000000,,2013-05-19 14:32:00,
2013-05-19 10:42:00,64.0,64.0,-100.00,South,182,3.0,9.0,100,-99.99,,,0.66,426.000000,,2013-05-19 14:42:00,
2013-05-19 10:52:00,64.0,64.0,-100.00,South,182,3.0,9.0,100,-99.99,,,0.66,426.000000,,2013-05-19 14:52:00,
2013-05-19 11:02:00,64.0,64.0,-100.00,South,182,3.0,9.0,100,-99.99,,,0.66,426.000000,,2013-05-19 15:02:00,
2013-05-19 11:33:00,64.0,62.0,-100.00,SSE,166,4.0,8.0,92,0.01,,,0.67,607.000000,,2013-05-19 15:33:00,
2013-05-19 11:43:00,64.0,62.0,-100.00,SSE,166,4.0,8.0,92,0.01,,,0.67,607.000000,,2013-05-19 15:43:00,
2013-05-19 11:53:00,64.0,62.0,-100.00,SSE,166,4.0,8.0,92,0.01,,,0.67,607.000000,,2013-05-19 15:53:00,
2013-05-19 12:03:00,64.0,62.0,-100.00,SSE,166,4.0,8.0,92,0.01,,,0.67,607.000000,,2013-05-19 16:03:00,
2013-05-19 12:33:00,62.0,61.0,-100.00,SSE,166,3.0,12.0,97,0.00,,,0.67,154.000000,,2013-05-19 16:33:00,
2013-05-19 12:42:00,62.0,61.0,-100.00,SSE,166,3.0,12.0,97,0.00,,,0.67,154.000000,,2013-05-19 16:42:00,
2013-05-19 12:53:00,62.0,61.0,-100.00,SSE,166,3.0,12.0,97,0.00,,,0.67,154.000000,,2013-05-19 16:53:00,
2013-05-19 13:02:00,62.0,61.0,-100.00,SSE,166,3.0,12.0,97,0.00,,,0.67,154.000000,,2013-05-19 17:02:00,
2013-05-19 13:32:00,61.0,60.0,-100.00,South,171,5.0,13.0,98,0.00,,,0.67,87.000000,,2013-05-19 17:32:00,
2013-05-19 13:43:00,61.0,60.0,-100.00,South,171,5.0,13.0,98,0.00,,,0.67,87.000000,,2013-05-19 17:43:00,
2013-05-19 13:52:00,61.0,60.0,-100.00,South,171,5.0,13.0,98,0.00,,,0.67,87.000000,,2013-05-19 17:52:00,
2013-05-19 14:02:00,61.0,60.0,-100.00,South,171,5.0,13.0,98,0.00,,,0.67,87.000000,,2013-05-19 18:02:00,
2013-05-19 14:32:00,63.0,60.0,-100.00,WNW,287,2.0,7.0,91,0.00,,,-99.99,214.000000,,2013-05-19 18:32:00,
2013-05-19 14:43:00,63.0,60.0,-100.00,WNW,287,2.0,7.0,91,0.00,,,-99.99,214.000000,,2013-05-19 18:43:00,
2013-05-19 14:53:00,63.0,60.0,-100.00,WNW,287,2.0,7.0,91,0.00,,,-99.99,214.000000,,2013-05-19 18:53:00,
2013-05-19 15:01:00,63.0,60.0,-100.00,WNW,287,2.0,7.0,91,0.00,,,-99.99,214.000000,,2013-05-19 19:01:00,
2013-05-19 15:32:00,62.0,61.0,-100.00,NW,311,2.0,7.0,96,0.05,,,0.72,99.000000,,2013-05-19 19:32:00,
2013-05-19 15:42:00,62.0,61.0,-100.00,NW,311,2.0,7.0,96,0.05,,,0.72,99.000000,,2013-05-19 19:42:00,
2013-05-19 15:52:00,62.0,61.0,-100.00,NW,311,2.0,7.0,96,0.05,,,0.72,99.000000,,2013-05-19 19:52:00,
2013-05-19 16:02:00,62.0,61.0,-100.00,NW,311,2.0,7.0,96,0.05,,,0.72,99.000000,,2013-05-19 20:02:00,
2013-05-19 16:32:00,60.0,60.0,-100.00,NNE,21,2.0,7.0,99,0.08,,,0.80,49.000000,,2013-05-19 20:32:00,
2013-05-19 16:42:00,60.0,60.0,-100.00,NNE,21,2.0,7.0,99,0.08,,,0.80,49.000000,,2013-05-19 20:42:00,
2013-05-19 16:52:00,60.0,60.0,-100.00,NNE,21,2.0,7.0,99,0.08,,,0.80,49.000000,,2013-05-19 20:52:00,
2013-05-19 17:02:00,60.0,60.0,-100.00,NNE,21,2.0,7.0,99,0.08,,,0.80,49.000000,,2013-05-19 21:02:00,
2013-05-19 17:32:00,60.0,60.0,-100.00,NNE,24,4.0,9.0,100,0.01,,,0.81,129.000000,,2013-05-19 21:32:00,
2013-05-19 17:43:00,60.0,60.0,-100.00,NNE,24,4.0,9.0,100,0.01,,,0.81,129.000000,,2013-05-19 21:43:00,
2013-05-19 17:53:00,60.0,60.0,-100.00,NNE,24,4.0,9.0,100,0.01,,,0.81,129.000000,,2013-05-19 21:53:00,
2013-05-19 18:03:00,60.0,60.0,-100.00,NNE,24,4.0,9.0,100,0.01,,,0.81,129.000000,,2013-05-19 22:03:00,
2013-05-19 18:33:00,59.0,55.0,-100.00,SSE,154,7.0,11.0,87,0.00,,,0.81,165.000000,,2013-05-19 22:33:00,
2013-05-19 18:43:00,59.0,55.0,-100.00,SSE,154,7.0,11.0,87,0.00,,,0.81,165.000000,,2013-05-19 22:43:00,
2013-05-19 18:53:00,59.0,55.0,-100.00,SSE,154,7.0,11.0,87,0.00,,,0.81,165.000000,,2013-05-19 22:53:00,
2013-05-19 19:03:00,59.0,55.0,-100.00,SSE,154,7.0,11.0,87,0.00,,,0.81,165.000000,,2013-05-19 23:03:00,
2013-05-19 19:32:00,59.0,59.0,-100.00,SSE,165,6.0,14.0,99,0.00,,,0.81,82.000000,,2013-05-19 23:32:00,
2013-05-19 19:42:00,59.0,59.0,-100.00,SSE,165,6.0,14.0,99,0.00,,,0.81,82.000000,,2013-05-19 23:42:00,
2013-05-19 19:52:00,59.0,59.0,-100.00,SSE,165,6.0,14.0,99,0.00,,,0.81,82.000000,,2013-05-19 23:52:00,
2013-05-19 20:02:00,59.0,59.0,-100.00,SSE,165,6.0,14.0,99,0.00,,,0.81,82.000000,,2013-05-20 00:02:00,
2013-05-19 20:32:00,59.0,58.0,-100.00,NNE,26,3.0,10.0,98,0.00,,,-99.99,32.000000,,2013-05-20 00:32:00,
2013-05-19 20:42:00,59.0,58.0,-100.00,NNE,26,3.0,10.0,98,0.00,,,-99.99,32.000000,,2013-05-20 00:42:00,
2013-05-19 20:52:00,59.0,58.0,-100.00,NNE,26,3.0,10.0,98,0.00,,,-99.99,32.000000,,2013-05-20 00:52:00,
2013-05-19 21:01:00,59.0,58.0,-100.00,NNE,26,3.0,10.0,98,0.00,,,-99.99,32.000000,,2013-05-20 01:01:00,
2013-05-19 21:32:00,58.0,58.0,-100.00,ESE,116,2.0,5.0,100,0.00,,,0.81,6.000000,,2013-05-20 01:32:00,
2013-05-19 21:42:00,58.0,58.0,-100.00,ESE,116,2.0,5.0,100,0.00,,,0.81,6.000000,,2013-05-20 01:42:00,
2013-05-19 21:52:00,58.0,58.0,-100.00,ESE,116,2.0,5.0,100,0.00,,,0.81,6.000000,,2013-05-20 01:52:00,
2013-05-19 22:02:00,58.0,58.0,-100.00,ESE,116,2.0,5.0,100,0.00,,,0.81,6.000000,,2013-05-20 02:02:00,
2013-05-19 22:32:00,57.0,57.0,-100.00,East,96,2.0,5.0,99,0.00,,,0.81,0.000000,,2013-05-20 02:32:00,
2013-05-19 22:42:00,57.0,57.0,-100.00,East,96,2.0,5.0,99,0.00,,,0.81,0.000000,,2013-05-20 02:42:00,
2013-05-19 22:52:00,57.0,57.0,-100.00,East,96,2.0,5.0,99,0.00,,,0.81,0.000000,,2013-05-20 02:52:00,
2013-05-19 23:02:00,57.0,57.0,-100.00,East,96,2.0,5.0,99,0.00,,,0.81,0.000000,,2013-05-20 03:02:00,
2013-05-19 23:33:00,57.0,55.0,-100.00,SE,133,2.0,5.0,93,0.00,,,0.81,0.000000,,2013-05-20 03:33:00,
2013-05-19 23:43:00,57.0,55.0,-100.00,SE,133,2.0,5.0,93,0.00,,,0.81,0.000000,,2013-05-20 03:43:00,
2013-05-19 23:53:00,57.0,55.0,-100.00,SE,133,2.0,5.0,93,0.00,,,0.81,0.000000,,2013-05-20 03:53:00,